カタログに戻る

LILIUM-3

運用中科学SSO
NORAD 66770·PAYLOAD·🇹🇼 Taiwan

打ち上げ Nov 28, 2025 から Vandenberg Space Force Base

Loading…

次のパス (今後24時間)

TLE

最新Source: Space-Track

元期: Sep 14, 2026, 12:13 UTC

1 66770U 25276DJ  26257.50928776  .00001764  00000-0  85386-4 0  9996
2 66770  97.4171 329.7766 0001012   1.7309 358.3929 15.19877490 43996

AllMySatでLILIUM-3をリアルタイム追跡

Download on the App Store